Weather History for KBUR - January, 2013

Change the Weather History Date:

Sunday, January 27, 2013

  Actual Average Record
Temperature  
Mean Temperature 53 °F 55 °F  
Max Temperature 59 °F 68 °F 85 °F (1986)
Min Temperature 47 °F 42 °F 30 °F (1979)
Degree Days  
Heating Degree Days 12 10  
Month to date heating degree days 282 276  
Since 1 July heating degree days 739 843  
Cooling Degree Days 0 0  
Month to date cooling degree days 0 0  
Year to date cooling degree days 0 0  
Growing Degree Days 2 (Base 50)    
Moisture  
Dew Point 45 °F    
Average Humidity 75    
Maximum Humidity 100    
Minimum Humidity 50    
Precipitation  
Precipitation 0.03 in 0.11 in 2.00 in (1983)
Month to date precipitation 0.77 3.02  
Year to date precipitation 0.77 3.02  
Since 1 July precipitation 3.57  
Sea Level Pressure  
Sea Level Pressure 29.96 in    
Wind  
Wind Speed 7 mph (SSE)    
Max Wind Speed 16 mph    
Max Gust Speed 18 mph    
Visibility 7 miles    
Events Rain    
T = Trace of Precipitation, MM = Missing Value Source: NWS Daily Summary

Daily Weather History Graph

Daily Weather History Graph

Search for Another Location

Airport or City:

Trip Planner

Search our weather history database for the weather conditions in past years. The results will help you decide how hot, cold, wet, or windy it might be!

Date:

Astronomy

Jan. 27, 2013 Rise Set
Actual Time 6:53 AM PST 5:19 PM PST
Civil Twilight 6:27 AM PST 5:45 PM PST
Nautical Twilight 5:57 AM PST 6:15 PM PST
Astronomical Twilight 5:27 AM PST 6:45 PM PST
Moon 6:13 PM PST 6:53 AM PST
Length of Visible Light 11h 18m
Length of Day
10h 25m
Full, 100% of the Moon is Illuminated
Jan 27
Full
Feb 3
Last Quarter
Feb 9
New
Feb 17
First Quarter
Feb 25
Full

Hourly Weather History & Observations

Time (PST) Temp. Dew Point Humidity Pressure Visibility Wind Dir Wind Speed Gust Speed Precip Events Conditions
12:53 AM 51.8 °F 51.8 °F 100% 29.96 in 2.0 mi SSE 6.9 mph - N/A   Overcast
1:53 AM 51.8 °F 51.8 °F 100% 29.96 in 2.0 mi SE 5.8 mph - N/A   Overcast
2:00 AM - - N/A% 29.98 in - SE 6.9 mph - N/A   Mist
2:09 AM 51.8 °F 51.8 °F 100% 29.98 in 2.0 mi SSE 6.9 mph - N/A   Overcast
2:53 AM 51.8 °F 51.8 °F 100% 29.95 in 2.0 mi SE 8.1 mph - N/A   Overcast
3:53 AM 55.4 °F 53.6 °F 94% 29.94 in 2.5 mi Variable 5.8 mph - N/A Rain Light Rain
4:53 AM 55.4 °F 53.6 °F 94% 29.94 in 2.5 mi SE 8.1 mph - N/A Rain Light Rain
5:53 AM 55.4 °F 53.6 °F 94% 29.94 in 2.5 mi SE 8.1 mph - N/A Rain Light Rain
6:53 AM 53.6 °F 51.8 °F 94% 29.96 in 2.5 mi SSE 5.8 mph - N/A Rain Light Rain
7:53 AM 53.6 °F 51.8 °F 94% 29.96 in 4.0 mi SSE 5.8 mph - N/A   Overcast
8:53 AM 57.2 °F 53.6 °F 88% 29.98 in 4.0 mi ESE 9.2 mph - N/A   Overcast
9:08 AM 57.2 °F 53.6 °F 88% 29.99 in 4.0 mi ESE 6.9 mph - N/A   Overcast
9:53 AM 54.0 °F 52.0 °F 93% 29.99 in 4.0 mi SE 8.1 mph - N/A   Overcast
10:53 AM 51.8 °F 48.2 °F 88% 30.00 in 10.0 mi Calm Calm - N/A   Overcast
11:53 AM 55.4 °F 48.2 °F 77% 29.98 in 10.0 mi WSW 5.8 mph - N/A   Mostly Cloudy
12:53 PM 59.0 °F 48.2 °F 67% 29.95 in 10.0 mi South 9.2 mph - N/A   Mostly Cloudy
1:53 PM 57.2 °F 44.6 °F 63% 29.93 in 10.0 mi South 10.4 mph - N/A   Mostly Cloudy
2:53 PM 57.2 °F 44.6 °F 63% 29.92 in 10.0 mi SSW 11.5 mph - N/A   Mostly Cloudy
3:39 PM 48.2 °F 42.8 °F 82% 29.96 in 8.0 mi North 10.4 mph - N/A Rain Rain
3:53 PM 50.0 °F 43.0 °F 77% 29.94 in 8.0 mi North 12.7 mph - N/A Rain Light Rain
4:53 PM 51.1 °F 39.0 °F 63% 29.95 in 9.0 mi West 3.5 mph - 0.00 in Rain Light Rain
5:53 PM 50.0 °F 41.0 °F 71% 29.95 in 10.0 mi WSW 5.8 mph - 0.03 in Rain Light Rain
6:53 PM 48.0 °F 39.0 °F 71% 29.96 in 10.0 mi North 6.9 mph - 0.00 in Rain Light Rain
7:53 PM 48.9 °F 33.1 °F 54% 29.96 in 10.0 mi NNW 6.9 mph - 0.00 in   Mostly Cloudy
8:53 PM 48.9 °F 30.9 °F 50% 29.97 in 10.0 mi NNW 9.2 mph - N/A   Mostly Cloudy
9:53 PM 48.0 °F 30.0 °F 50% 29.98 in 10.0 mi NNW 5.8 mph - N/A   Clear
10:53 PM 46.9 °F 30.9 °F 54% 29.99 in 10.0 mi NW 4.6 mph - N/A   Clear
11:53 PM 48.0 °F 28.9 °F 48% 30.00 in 10.0 mi NNW 11.5 mph - N/A   Clear